DW5775 Weather Reports


Display with metric or nautical units.
time (UTC)temp
F
wind
direction
speed
MPH
gust
MPH
rain 1hr
in
rain 24hr
in
rain mn
in
humidity
%
barometer
mb
20260906171526 75 340 0.0 3.0 0.00 0.00 0.00 60 1018.0
20260906170025 75 300 1.0 4.0 0.00 0.00 0.00 59 1018.2
20260906164522 74 309 0.0 4.0 0.00 0.00 0.00 60 1018.4
20260906163019 73 131 0.0 5.0 0.00 0.00 0.00 59 1018.3
20260906161524 73 302 0.0 3.0 0.00 0.00 0.00 64 1018.4
20260906160020 72 340 0.0 6.0 0.00 0.00 0.00 69 1018.3
20260906154513 71 309 0.0 3.0 0.00 0.00 0.00 70 1018.3
20260906153015 71 291 0.0 2.0 0.00 0.00 0.00 70 1018.2
20260906151510 71 323 0.0 1.0 0.00 0.00 0.00 73 1018.1
20260906150009 71 292 0.0 2.0 0.00 0.00 0.00 76 1018.1
20260906144505 70 13 0.0 2.0 0.00 0.00 0.00 79 1017.9
20260906143004 69 215 0.0 2.0 0.00 0.00 0.00 78 1018.0
20260906141601 69 311 1.0 2.0 0.00 0.00 0.00 80 1017.9
20260906140101 68 287 0.0 6.0 0.00 0.00 0.00 82 1017.8
20260906134554 68 17 0.0 1.0 0.00 0.00 0.00 86 1017.8
20260906133112 67 288 0.0 1.0 0.00 0.00 0.00 88 1017.7
20260906131549 66 298 0.0 2.0 0.00 0.00 0.00 90 1017.7
20260906130104 66 308 0.0 1.0 0.00 0.00 0.00 91 1017.7
20260906124543 65 246 0.0 1.0 0.00 0.00 0.00 93 1017.6
20260906123039 63 250 0.0 1.0 0.00 0.00 0.00 95 1017.5
20260906121536 62 262 0.0 1.0 0.00 0.00 0.00 96 1017.4
20260906120034 61 260 0.0 1.0 0.00 0.00 0.00 96 1017.3
20260906114542 61 12 0.0 0.0 0.00 0.00 0.00 95 1017.0
20260906113027 61 12 0.0 0.0 0.00 0.00 0.00 95 1016.8
20260906111525 61 11 0.0 0.0 0.00 0.00 0.00 95 1016.8
20260906110025 61 11 0.0 0.0 0.00 0.00 0.00 95 1016.7
20260906104525 61 11 0.0 0.0 0.00 0.00 0.00 95 1016.6
20260906103022 61 12 0.0 0.0 0.00 0.00 0.00 95 1016.4
20260906101523 61 12 0.0 0.0 0.00 0.00 0.00 95 1016.3
20260906100025 61 15 0.0 0.0 0.00 0.00 0.00 95 1016.2
20260906094522 60 50 0.0 0.0 0.00 0.00 0.00 95 1016.1
20260906093020 60 49 0.0 0.0 0.00 0.00 0.00 95 1016.1
20260906091523 60 50 0.0 0.0 0.00 0.00 0.00 95 1016.3
20260906090016 60 49 0.0 0.0 0.00 0.00 0.00 95 1016.2
20260906084514 60 49 0.0 0.0 0.00 0.00 0.00 95 1016.0
20260906083013 60 50 0.0 0.0 0.00 0.00 0.00 95 1016.0
20260906081517 60 50 0.0 0.0 0.00 0.00 0.00 95 1016.0
20260906080013 60 49 0.0 0.0 0.00 0.00 0.00 95 1015.9
20260906074509 60 50 0.0 0.0 0.00 0.00 0.00 95 1015.8
20260906073008 60 49 0.0 0.0 0.00 0.00 0.00 94 1015.7
20260906071506 60 49 0.0 0.0 0.00 0.00 0.00 94 1015.6
20260906070005 60 50 0.0 0.0 0.00 0.00 0.00 94 1015.6
20260906064504 60 50 0.0 0.0 0.00 0.00 0.00 94 1015.3
20260906063003 60 49 0.0 0.0 0.00 0.00 0.00 93 1015.4
20260906061502 60 49 0.0 0.0 0.00 0.00 0.00 93 1015.3
20260906060101 60 23 0.0 0.0 0.00 0.00 0.00 93 1015.4
20260906054606 60 29 0.0 0.0 0.00 0.00 0.00 93 1015.4
20260906053102 60 291 0.0 0.0 0.00 0.00 0.00 93 1015.4
20260906051611 60 291 0.0 0.0 0.00 0.00 0.00 92 1015.5
20260906050056 60 291 0.0 0.0 0.00 0.00 0.00 91 1015.5
20260906044603 60 290 0.0 0.0 0.00 0.00 0.00 90 1015.4
20260906043053 60 291 0.0 0.0 0.00 0.00 0.00 89 1015.5
20260906041553 61 291 0.0 0.0 0.00 0.00 0.00 88 1015.2
20260906040124 61 291 0.0 0.0 0.00 0.00 0.00 87 1015.2
20260906034600 61 291 0.0 0.0 0.00 0.00 0.00 87 1015.2
20260906033102 62 291 0.0 0.0 0.00 0.00 0.00 87 1015.2
20260906031545 62 290 0.0 0.0 0.00 0.00 0.00 87 1015.2
20260906030042 63 290 0.0 0.0 0.00 0.00 0.00 85 1015.1
20260906024540 64 291 0.0 0.0 0.00 0.00 0.00 84 1015.0
20260906023036 64 291 0.0 0.0 0.00 0.00 0.00 83 1015.1
20260906021535 65 290 0.0 0.0 0.00 0.00 0.00 82 1015.1
20260906020034 65 291 0.0 0.0 0.00 0.00 0.00 81 1015.0
20260906014531 66 291 0.0 0.0 0.00 0.00 0.00 78 1015.0
20260906013030 66 291 0.0 0.0 0.00 0.00 0.00 77 1014.7
20260906011526 67 293 0.0 0.0 0.00 0.00 0.00 74 1014.6
20260906010025 68 290 0.0 0.0 0.00 0.00 0.00 72 1014.4
20260906004522 69 298 0.0 1.0 0.00 0.00 0.00 71 1014.1
20260906003021 69 284 0.0 0.0 0.00 0.00 0.00 74 1014.1
20260906001523 70 288 0.0 1.0 0.00 0.00 0.00 75 1013.9
20260906000021 71 277 0.0 1.0 0.00 0.00 0.00 73 1013.7
20260905234520 71 232 0.0 1.0 0.00 0.00 0.00 71 1013.6
20260905233018 72 225 0.0 0.0 0.00 0.00 0.00 70 1013.7
20260905231520 72 214 0.0 1.0 0.00 0.00 0.00 67 1013.7
20260905230017 73 302 0.0 1.0 0.00 0.00 0.00 67 1013.6
20260905224536 74 286 0.0 2.0 0.00 0.00 0.00 64 1013.5
20260905223020 74 276 0.0 1.0 0.00 0.00 0.00 64 1013.3
20260905221515 75 291 0.0 0.0 0.00 0.00 0.00 65 1013.3
20260905220014 75 12 0.0 2.0 0.00 0.00 0.00 63 1013.1
20260905214514 76 284 0.0 3.0 0.00 0.00 0.00 61 1013.1
20260905213013 77 43 0.0 3.0 0.00 0.00 0.00 60 1012.9
20260905211534 78 72 0.0 1.0 0.00 0.00 0.00 57 1013.0
20260905210020 78 225 0.0 3.0 0.00 0.00 0.00 60 1013.0
20260905204510 78 286 0.0 2.0 0.00 0.00 0.00 59 1013.0
20260905203010 79 309 0.0 0.0 0.00 0.00 0.00 60 1013.0
20260905201509 78 305 0.0 0.0 0.00 0.00 0.00 64 1013.0
20260905200019 77 288 0.0 0.0 0.00 0.00 0.00 66 1013.1
20260905194506 77 288 0.0 0.0 0.00 0.00 0.00 66 1013.1
20260905193008 78 236 0.0 0.0 0.00 0.00 0.00 66 1013.3
20260905191505 78 249 0.0 2.0 0.00 0.00 0.00 63 1013.2
20260905190004 78 272 0.0 1.0 0.00 0.00 0.00 64 1013.4
20260905184506 78 288 0.0 1.0 0.00 0.00 0.00 65 1013.5
20260905183001 79 262 0.0 3.0 0.00 0.00 0.00 63 1013.4
20260905181559 78 300 0.0 2.0 0.00 0.00 0.00 64 1013.5
20260905180104 78 291 0.0 3.0 0.00 0.00 0.00 66 1013.6
20260905174553 76 236 0.0 3.0 0.00 0.00 0.00 70 1013.6
20260905173106 76 274 0.0 4.0 0.00 0.00 0.00 70 1013.6